map of HUT home
HUT - Airport
Location
City:  Hutchinson, Kansas, United States
Name:Hutchinson Regional
ICAO:KHUT
IATA:HUT
FAA LID:HUT

Details
Type:Airport (Airfield)
Use:Public/Civil
Latitude:3803'58"N (38.066167)
Longitude:9751'38"W (-97.860499)
Datum:WGS 1984
Elevation:1542 ft (470 m)
Variation:3.84E (WMM2015 magnetic declination)
-0.10 annual change
Runways:3
Longest:7003 × 100 ft (2135 × 30.5 m), paved

Time
Time Zone:UTC-6 (DST-5)
Local Time:

Weather
METAR:KHUT 170252Z 31003KT 10SM CLR 00/M02 A3032 RMK AO2 SLP273 T00001022 50009
TAF:KHUT 162320Z 1700/1724 01005KT P6SM SKC
FM170100 VRB03KT P6SM SKC
FM171700 17008KT P6SM SKC

Related Locations
Nearby:
Farthest:RRG: 10745 mi / 17293 km
Plaine Corail [Sir Gatan Duval Airport (Plaine Corail Airport)], Rodrigues Island, MU

Find:

   beyond  
but within

Other Information
Maps:
NOTAMs:
Links:
Sources:

  
  • flag of United States
  • flag of Kansas
  

Airport Diagram

Airport diagram for HUT

Airport diagram PDF

Sectional Chart

Flight Planning
at skyvector.com

Satellite Image

Google Maps Satellite view

 

Copyright © 2004-2018 Karl L. Swartz. All rights reserved.
The Great Circle Mapper name and logo are trademarks of the Great Circle Mapper.
All other trademarks mentioned herein belong to their respective owners.
Please see credits for attibutions and further copyright information.

  Follow gcmap on Facebook Follow gcmap on Twitter Follow gcmap on Google+ GCmap on LinkedIn

hCard Microformat

Geo Microformat